Retour au catalogue

KUIPER-00080

ActifCommunicationsLEO
NORAD 64827·PAYLOAD·🇺🇸 United States

Lancé Jul 16, 2025 depuis Cape Canaveral Space Force Station

Loading…

Prochains Passages (prochaines 24 heures)

TLE

FraisSource: CelesTrak SupGP

Époque: Sep 14, 2026, 20:00 UTC

1 64827C 25151M   26257.83376157  .00000268  00000+0  35122-4 0  2572
2 64827  51.8988 184.1674 0000780  93.4340  34.1919 14.79928076    18

Suivez KUIPER-00080 en temps réel avec AllMySat

Download on the App Store